Year,Month,Day,Hour,Minute,Value (Times are PST for temperature in C)
2006,08,28,00,00,16.40
2006,08,28,00,01,16.40
2006,08,28,00,02,16.30
2006,08,28,00,03,16.30
2006,08,28,00,04,16.30
2006,08,28,00,05,16.30
2006,08,28,00,06,16.20
2006,08,28,00,07,16.20
2006,08,28,00,08,16.20
2006,08,28,00,09,16.10
2006,08,28,00,10,16.10
2006,08,28,00,11,16.10
2006,08,28,00,12,16.10
2006,08,28,00,13,16.10
2006,08,28,00,14,16.10
2006,08,28,00,15,16.10
2006,08,28,00,16,16.10
2006,08,28,00,17,16.10
2006,08,28,00,18,16.10
2006,08,28,00,19,16.10
2006,08,28,00,20,16.10
2006,08,28,00,21,16.00
2006,08,28,00,22,15.90
2006,08,28,00,23,15.80
2006,08,28,00,24,15.80
2006,08,28,00,25,15.70
2006,08,28,00,26,15.60
2006,08,28,00,27,15.60
2006,08,28,00,28,15.50
2006,08,28,00,29,15.40
2006,08,28,00,30,15.30
2006,08,28,00,31,15.30
2006,08,28,00,32,15.20
2006,08,28,00,33,15.10
2006,08,28,00,34,15.00
2006,08,28,00,35,15.00
2006,08,28,00,36,14.90
2006,08,28,00,37,14.90
2006,08,28,00,38,14.80
2006,08,28,00,39,14.80
2006,08,28,00,40,14.80
2006,08,28,00,41,14.70
2006,08,28,00,42,14.70
2006,08,28,00,43,14.60
2006,08,28,00,44,14.60
2006,08,28,00,45,14.60
2006,08,28,00,46,14.50
2006,08,28,00,47,14.50
2006,08,28,00,48,14.50
2006,08,28,00,49,14.40
2006,08,28,00,50,14.30
2006,08,28,00,51,14.20
2006,08,28,00,52,14.20
2006,08,28,00,53,14.20
2006,08,28,00,54,14.10
2006,08,28,00,55,14.00
2006,08,28,00,56,14.00
2006,08,28,00,57,14.00
2006,08,28,00,58,14.00
2006,08,28,00,59,13.90
2006,08,28,01,00,13.90
2006,08,28,01,01,13.90
2006,08,28,01,02,13.90
2006,08,28,01,03,13.90
2006,08,28,01,04,13.90
2006,08,28,01,05,13.90
2006,08,28,01,06,13.90
2006,08,28,01,07,13.90
2006,08,28,01,08,13.90
2006,08,28,01,09,13.90
2006,08,28,01,10,13.90
2006,08,28,01,11,13.90
2006,08,28,01,12,13.90
2006,08,28,01,13,13.80
2006,08,28,01,14,13.80
2006,08,28,01,15,13.80
2006,08,28,01,16,13.80
2006,08,28,01,17,13.70
2006,08,28,01,18,13.70
2006,08,28,01,19,13.70
2006,08,28,01,20,13.70
2006,08,28,01,21,13.60
2006,08,28,01,22,13.60
2006,08,28,01,23,13.50
2006,08,28,01,24,13.50
2006,08,28,01,25,13.40
2006,08,28,01,26,13.40
2006,08,28,01,27,13.40
2006,08,28,01,28,13.30
2006,08,28,01,29,13.30
2006,08,28,01,30,13.30
2006,08,28,01,31,13.30
2006,08,28,01,32,13.30
2006,08,28,01,33,13.20
2006,08,28,01,34,13.20
2006,08,28,01,35,13.20
2006,08,28,01,36,13.10
2006,08,28,01,37,13.10
2006,08,28,01,38,13.10
2006,08,28,01,39,13.10
2006,08,28,01,40,13.10
2006,08,28,01,41,13.10
2006,08,28,01,42,13.00
2006,08,28,01,43,13.00
2006,08,28,01,44,13.00
2006,08,28,01,45,13.00
2006,08,28,01,46,13.00
2006,08,28,01,47,13.00
2006,08,28,01,48,13.00
2006,08,28,01,49,13.00
2006,08,28,01,50,12.90
2006,08,28,01,51,12.90
2006,08,28,01,52,12.90
2006,08,28,01,53,12.90
2006,08,28,01,54,12.90
2006,08,28,01,55,12.90
2006,08,28,01,56,12.90
2006,08,28,01,57,12.90
2006,08,28,01,58,12.80
2006,08,28,01,59,12.80
2006,08,28,02,00,12.80
2006,08,28,02,01,12.80
2006,08,28,02,02,12.80
2006,08,28,02,03,12.80
2006,08,28,02,04,12.80
2006,08,28,02,05,12.80
2006,08,28,02,06,12.80
2006,08,28,02,07,12.80
2006,08,28,02,08,12.80
2006,08,28,02,09,12.70
2006,08,28,02,10,12.70
2006,08,28,02,11,12.70
2006,08,28,02,12,12.70
2006,08,28,02,13,12.70
2006,08,28,02,14,12.70
2006,08,28,02,15,12.70
2006,08,28,02,16,12.70
2006,08,28,02,17,12.70
2006,08,28,02,18,12.70
2006,08,28,02,19,12.70
2006,08,28,02,20,12.80
2006,08,28,02,21,12.80
2006,08,28,02,22,12.80
2006,08,28,02,23,12.70
2006,08,28,02,24,12.70
2006,08,28,02,25,12.70
2006,08,28,02,26,12.80
2006,08,28,02,27,12.80
2006,08,28,02,28,12.80
2006,08,28,02,29,12.80
2006,08,28,02,30,12.80
2006,08,28,02,31,12.80
2006,08,28,02,32,12.80
2006,08,28,02,33,12.80
2006,08,28,02,34,12.70
2006,08,28,02,35,12.70
2006,08,28,02,36,12.70
2006,08,28,02,37,12.70
2006,08,28,02,38,12.70
2006,08,28,02,39,12.70
2006,08,28,02,40,12.70
2006,08,28,02,41,12.80
2006,08,28,02,42,12.80
2006,08,28,02,43,12.80
2006,08,28,02,44,12.80
2006,08,28,02,45,12.80
2006,08,28,02,46,12.80
2006,08,28,02,47,12.80
2006,08,28,02,48,12.80
2006,08,28,02,49,12.80
2006,08,28,02,50,12.80
2006,08,28,02,51,12.80
2006,08,28,02,52,12.90
2006,08,28,02,53,12.90
2006,08,28,02,54,12.90
2006,08,28,02,55,12.90
2006,08,28,02,56,12.90
2006,08,28,02,57,12.90
2006,08,28,02,58,12.90
2006,08,28,02,59,12.90
2006,08,28,03,00,12.90
2006,08,28,03,01,12.90
2006,08,28,03,02,12.90
2006,08,28,03,03,13.00
2006,08,28,03,04,13.00
2006,08,28,03,05,13.00
2006,08,28,03,06,13.00
2006,08,28,03,07,13.10
2006,08,28,03,08,13.10
2006,08,28,03,09,13.20
2006,08,28,03,10,13.20
2006,08,28,03,11,13.30
2006,08,28,03,12,13.30
2006,08,28,03,13,13.30
2006,08,28,03,14,13.30
2006,08,28,03,15,13.30
2006,08,28,03,16,13.30
2006,08,28,03,17,13.30
2006,08,28,03,18,13.30
2006,08,28,03,19,13.30
2006,08,28,03,20,13.30
2006,08,28,03,21,13.30
2006,08,28,03,22,13.30
2006,08,28,03,23,13.30
2006,08,28,03,24,13.30
2006,08,28,03,25,13.30
2006,08,28,03,26,13.30
2006,08,28,03,27,13.30
2006,08,28,03,28,13.30
2006,08,28,03,29,13.30
2006,08,28,03,30,13.30
2006,08,28,03,31,13.20
2006,08,28,03,32,13.20
2006,08,28,03,33,13.20
2006,08,28,03,34,13.20
2006,08,28,03,35,13.20
2006,08,28,03,36,13.20
2006,08,28,03,37,13.20
2006,08,28,03,38,13.20
2006,08,28,03,39,13.20
2006,08,28,03,40,13.20
2006,08,28,03,41,13.20
2006,08,28,03,42,13.20
2006,08,28,03,43,13.20
2006,08,28,03,44,13.20
2006,08,28,03,45,13.20
2006,08,28,03,46,13.20
2006,08,28,03,47,13.20
2006,08,28,03,48,13.30
2006,08,28,03,49,13.30
2006,08,28,03,50,13.30
2006,08,28,03,51,13.30
2006,08,28,03,52,13.30
2006,08,28,03,53,13.30
2006,08,28,03,54,13.30
2006,08,28,03,55,13.30
2006,08,28,03,56,13.30
2006,08,28,03,57,13.30
2006,08,28,03,58,13.30
2006,08,28,03,59,13.30
2006,08,28,04,00,13.30
2006,08,28,04,01,13.30
2006,08,28,04,02,13.30
2006,08,28,04,03,13.30
2006,08,28,04,04,13.30
2006,08,28,04,05,13.30
2006,08,28,04,06,13.30
2006,08,28,04,07,13.30
2006,08,28,04,08,13.30
2006,08,28,04,09,13.30
2006,08,28,04,10,13.30
2006,08,28,04,11,13.20
2006,08,28,04,12,13.20
2006,08,28,04,13,13.30
2006,08,28,04,14,13.30
2006,08,28,04,15,13.30
2006,08,28,04,16,13.30
2006,08,28,04,17,13.30
2006,08,28,04,18,13.30
2006,08,28,04,19,13.20
2006,08,28,04,20,13.20
2006,08,28,04,21,13.10
2006,08,28,04,22,13.10
2006,08,28,04,23,13.10
2006,08,28,04,24,13.00
2006,08,28,04,25,13.00
2006,08,28,04,26,13.00
2006,08,28,04,27,12.90
2006,08,28,04,28,12.90
2006,08,28,04,29,12.90
2006,08,28,04,30,12.90
2006,08,28,04,31,12.90
2006,08,28,04,32,12.90
2006,08,28,04,33,12.90
2006,08,28,04,34,12.90
2006,08,28,04,35,12.90
2006,08,28,04,36,12.90
2006,08,28,04,37,12.80
2006,08,28,04,38,12.80
2006,08,28,04,39,12.80
2006,08,28,04,40,12.80
2006,08,28,04,41,12.80
2006,08,28,04,42,12.80
2006,08,28,04,43,12.80
2006,08,28,04,44,12.80
2006,08,28,04,45,12.80
2006,08,28,04,46,12.80
2006,08,28,04,47,12.80
2006,08,28,04,48,12.90
2006,08,28,04,49,12.90
2006,08,28,04,50,12.90
2006,08,28,04,51,12.90
2006,08,28,04,52,12.90
2006,08,28,04,53,12.90
2006,08,28,04,54,13.00
2006,08,28,04,55,13.00
2006,08,28,04,56,13.00
2006,08,28,04,57,13.00
2006,08,28,04,58,13.00
2006,08,28,04,59,13.00
2006,08,28,05,00,13.00
2006,08,28,05,01,13.00
2006,08,28,05,02,13.00
2006,08,28,05,03,13.00
2006,08,28,05,04,13.00
2006,08,28,05,05,12.90
2006,08,28,05,06,12.90
2006,08,28,05,07,12.90
2006,08,28,05,08,12.90
2006,08,28,05,09,12.90
2006,08,28,05,10,12.90
2006,08,28,05,11,12.80
2006,08,28,05,12,12.80
2006,08,28,05,13,12.80
2006,08,28,05,14,12.80
2006,08,28,05,15,12.80
2006,08,28,05,16,12.80
2006,08,28,05,17,12.80
2006,08,28,05,18,12.80
2006,08,28,05,19,12.80
2006,08,28,05,20,12.80
2006,08,28,05,21,12.80
2006,08,28,05,22,12.80
2006,08,28,05,23,12.80
2006,08,28,05,24,12.90
2006,08,28,05,25,12.90
2006,08,28,05,26,12.90
2006,08,28,05,27,12.90
2006,08,28,05,28,12.90
2006,08,28,05,29,12.90
2006,08,28,05,30,12.90
2006,08,28,05,31,12.90
2006,08,28,05,32,12.90
2006,08,28,05,33,12.90
2006,08,28,05,34,12.90
2006,08,28,05,35,12.80
2006,08,28,05,36,12.80
2006,08,28,05,37,12.80
2006,08,28,05,38,12.80
2006,08,28,05,39,12.80
2006,08,28,05,40,12.80
2006,08,28,05,41,12.90
2006,08,28,05,42,12.90
2006,08,28,05,43,12.90
2006,08,28,05,44,12.90
2006,08,28,05,45,12.90
2006,08,28,05,46,12.90
2006,08,28,05,47,12.90
2006,08,28,05,48,12.90
2006,08,28,05,49,12.90
2006,08,28,05,50,12.90
2006,08,28,05,51,12.90
2006,08,28,05,52,12.90
2006,08,28,05,53,13.00
2006,08,28,05,54,13.00
2006,08,28,05,55,13.00
2006,08,28,05,56,13.10
2006,08,28,05,57,13.10
2006,08,28,05,58,13.20
2006,08,28,05,59,13.20
2006,08,28,06,00,13.20
2006,08,28,06,01,13.30
2006,08,28,06,02,13.30
2006,08,28,06,03,13.30
2006,08,28,06,04,13.30
2006,08,28,06,05,13.30
2006,08,28,06,06,13.30
2006,08,28,06,07,13.30
2006,08,28,06,08,13.30
2006,08,28,06,09,13.30
2006,08,28,06,10,13.40
2006,08,28,06,11,13.40
2006,08,28,06,12,13.40
2006,08,28,06,13,13.40
2006,08,28,06,14,13.40
2006,08,28,06,15,13.40
2006,08,28,06,16,13.40
2006,08,28,06,17,13.50
2006,08,28,06,18,13.50
2006,08,28,06,19,13.50
2006,08,28,06,20,13.50
2006,08,28,06,21,13.50
2006,08,28,06,22,13.50
2006,08,28,06,23,13.50
2006,08,28,06,24,13.50
2006,08,28,06,25,13.50
2006,08,28,06,26,13.60
2006,08,28,06,27,13.60
2006,08,28,06,28,13.60
2006,08,28,06,29,13.60
2006,08,28,06,30,13.60
2006,08,28,06,31,13.60
2006,08,28,06,32,13.60
2006,08,28,06,33,13.50
2006,08,28,06,34,13.50
2006,08,28,06,35,13.50
2006,08,28,06,36,13.50
2006,08,28,06,37,13.50
2006,08,28,06,38,13.50
2006,08,28,06,39,13.50
2006,08,28,06,40,13.40
2006,08,28,06,41,13.40
2006,08,28,06,42,13.40
2006,08,28,06,43,13.40
2006,08,28,06,44,13.40
2006,08,28,06,45,13.30
2006,08,28,06,46,13.30
2006,08,28,06,47,13.30
2006,08,28,06,48,13.30
2006,08,28,06,49,13.30
2006,08,28,06,50,13.40
2006,08,28,06,51,13.40
2006,08,28,06,52,13.40
2006,08,28,06,53,13.40
2006,08,28,06,54,13.40
2006,08,28,06,55,13.50
2006,08,28,06,56,13.50
2006,08,28,06,57,13.50
2006,08,28,06,58,13.60
2006,08,28,06,59,13.60
2006,08,28,07,00,13.60
2006,08,28,07,01,13.60
2006,08,28,07,02,13.70
2006,08,28,07,03,13.70
2006,08,28,07,04,13.80
2006,08,28,07,05,13.90
2006,08,28,07,06,14.00
2006,08,28,07,07,14.00
2006,08,28,07,08,14.10
2006,08,28,07,09,14.10
2006,08,28,07,10,14.20
2006,08,28,07,11,14.20
2006,08,28,07,12,14.20
2006,08,28,07,13,14.20
2006,08,28,07,14,14.30
2006,08,28,07,15,14.30
2006,08,28,07,16,14.40
2006,08,28,07,17,14.50
2006,08,28,07,18,14.50
2006,08,28,07,19,14.60
2006,08,28,07,20,14.60
2006,08,28,07,21,14.70
2006,08,28,07,22,14.80
2006,08,28,07,23,14.80
2006,08,28,07,24,14.80
2006,08,28,07,25,14.90
2006,08,28,07,26,15.00
2006,08,28,07,27,15.10
2006,08,28,07,28,15.10
2006,08,28,07,29,15.20
2006,08,28,07,30,15.20
2006,08,28,07,31,15.30
2006,08,28,07,32,15.30
2006,08,28,07,33,15.40
2006,08,28,07,34,15.50
2006,08,28,07,35,15.50
2006,08,28,07,36,15.50
2006,08,28,07,37,15.60
2006,08,28,07,38,15.60
2006,08,28,07,39,15.70
2006,08,28,07,40,15.70
2006,08,28,07,41,15.70
2006,08,28,07,42,15.80
2006,08,28,07,43,15.80
2006,08,28,07,44,15.80
2006,08,28,07,45,15.90
2006,08,28,07,46,16.00
2006,08,28,07,47,16.10
2006,08,28,07,48,16.10
2006,08,28,07,49,16.10
2006,08,28,07,50,16.20
2006,08,28,07,51,16.20
2006,08,28,07,52,16.30
2006,08,28,07,53,16.30
2006,08,28,07,54,16.30
2006,08,28,07,55,16.30
2006,08,28,07,56,16.40
2006,08,28,07,57,16.40
2006,08,28,07,58,16.40
2006,08,28,07,59,16.40
2006,08,28,08,00,16.40
2006,08,28,08,01,16.60
2006,08,28,08,02,16.60
2006,08,28,08,03,16.70
2006,08,28,08,04,16.70
2006,08,28,08,05,16.70
2006,08,28,08,06,16.70
2006,08,28,08,07,16.80
2006,08,28,08,08,16.80
2006,08,28,08,09,16.90
2006,08,28,08,10,17.00
2006,08,28,08,11,17.00
2006,08,28,08,12,17.10
2006,08,28,08,13,17.10
2006,08,28,08,14,17.20
2006,08,28,08,15,17.30
2006,08,28,08,16,17.30
2006,08,28,08,17,17.30
2006,08,28,08,18,17.30
2006,08,28,08,19,17.40
2006,08,28,08,20,17.40
2006,08,28,08,21,17.50
2006,08,28,08,22,17.50
2006,08,28,08,23,17.60
2006,08,28,08,24,17.60
2006,08,28,08,25,17.60
2006,08,28,08,26,17.70
2006,08,28,08,27,17.70
2006,08,28,08,28,17.80
2006,08,28,08,29,17.90
2006,08,28,08,30,18.00
2006,08,28,08,31,18.10
2006,08,28,08,32,18.20
2006,08,28,08,33,18.20
2006,08,28,08,34,18.20
2006,08,28,08,35,18.20
2006,08,28,08,36,18.20
2006,08,28,08,37,18.10
2006,08,28,08,38,18.10
2006,08,28,08,39,18.00
2006,08,28,08,40,17.90
2006,08,28,08,41,17.90
2006,08,28,08,42,17.90
2006,08,28,08,43,17.90
2006,08,28,08,44,18.00
2006,08,28,08,45,18.10
2006,08,28,08,46,18.20
2006,08,28,08,47,18.20
2006,08,28,08,48,18.20
2006,08,28,08,49,18.30
2006,08,28,08,50,18.30
2006,08,28,08,51,18.30
2006,08,28,08,52,18.40
2006,08,28,08,53,18.40
2006,08,28,08,54,18.40
2006,08,28,08,55,18.40
2006,08,28,08,56,18.50
2006,08,28,08,57,18.50
2006,08,28,08,58,18.50
2006,08,28,08,59,18.50
2006,08,28,09,00,18.50
2006,08,28,09,01,18.50
2006,08,28,09,02,18.60
2006,08,28,09,03,18.60
2006,08,28,09,04,18.70
2006,08,28,09,05,18.80
2006,08,28,09,06,18.90
2006,08,28,09,07,18.90
2006,08,28,09,08,18.90
2006,08,28,09,09,18.90
2006,08,28,09,10,19.00
2006,08,28,09,11,19.10
2006,08,28,09,12,19.20
2006,08,28,09,13,19.30
2006,08,28,09,14,19.30
2006,08,28,09,15,19.40
2006,08,28,09,16,19.50
2006,08,28,09,17,19.60
2006,08,28,09,18,19.80
2006,08,28,09,19,19.90
2006,08,28,09,20,19.90
2006,08,28,09,21,19.90
2006,08,28,09,22,19.90
2006,08,28,09,23,19.90
2006,08,28,09,24,19.90
2006,08,28,09,25,19.80
2006,08,28,09,26,19.80
2006,08,28,09,27,19.80
2006,08,28,09,28,19.80
2006,08,28,09,29,19.70
2006,08,28,09,30,19.70
2006,08,28,09,31,19.70
2006,08,28,09,32,19.70
2006,08,28,09,33,19.80
2006,08,28,09,34,19.80
2006,08,28,09,35,19.90
2006,08,28,09,36,19.90
2006,08,28,09,37,19.90
2006,08,28,09,38,19.90
2006,08,28,09,39,19.80
2006,08,28,09,40,19.80
2006,08,28,09,41,19.80
2006,08,28,09,42,19.80
2006,08,28,09,43,19.80
2006,08,28,09,44,19.80
2006,08,28,09,45,19.80
2006,08,28,09,46,19.70
2006,08,28,09,47,19.80
2006,08,28,09,48,19.80
2006,08,28,09,49,19.80
2006,08,28,09,50,19.80
2006,08,28,09,51,19.70
2006,08,28,09,52,19.70
2006,08,28,09,53,19.60
2006,08,28,09,54,19.50
2006,08,28,09,55,19.30
2006,08,28,09,56,19.20
2006,08,28,09,57,19.10
2006,08,28,09,58,19.00
2006,08,28,09,59,18.90
2006,08,28,10,00,18.90
2006,08,28,10,01,18.90
2006,08,28,10,02,18.90
2006,08,28,10,03,18.90
2006,08,28,10,04,18.90
2006,08,28,10,05,18.90
2006,08,28,10,06,18.90
2006,08,28,10,07,19.10
2006,08,28,10,08,19.10
2006,08,28,10,09,19.10
2006,08,28,10,10,19.10
2006,08,28,10,11,19.10
2006,08,28,10,12,19.10
2006,08,28,10,13,19.10
2006,08,28,10,14,19.20
2006,08,28,10,15,19.30
2006,08,28,10,16,19.40
2006,08,28,10,17,19.50
2006,08,28,10,18,19.50
2006,08,28,10,19,19.60
2006,08,28,10,20,19.70
2006,08,28,10,21,19.80
2006,08,28,10,22,19.80
2006,08,28,10,23,19.90
2006,08,28,10,24,19.90
2006,08,28,10,25,19.90
2006,08,28,10,26,19.90
2006,08,28,10,27,20.00
2006,08,28,10,28,20.10
2006,08,28,10,29,20.20
2006,08,28,10,30,20.20
2006,08,28,10,31,20.10
2006,08,28,10,32,20.10
2006,08,28,10,33,20.00
2006,08,28,10,34,19.90
2006,08,28,10,35,19.90
2006,08,28,10,36,19.90
2006,08,28,10,37,19.90
2006,08,28,10,38,19.90
2006,08,28,10,39,19.90
2006,08,28,10,40,19.90
2006,08,28,10,41,20.00
2006,08,28,10,42,20.10
2006,08,28,10,43,20.20
2006,08,28,10,44,20.20
2006,08,28,10,45,20.20
2006,08,28,10,46,20.30
2006,08,28,10,47,20.30
2006,08,28,10,48,20.40
2006,08,28,10,49,20.50
2006,08,28,10,50,20.50
2006,08,28,10,51,20.50
2006,08,28,10,52,20.50
2006,08,28,10,53,20.50
2006,08,28,10,54,20.50
2006,08,28,10,55,20.50
2006,08,28,10,56,20.60
2006,08,28,10,57,20.60
2006,08,28,10,58,20.60
2006,08,28,10,59,20.60
2006,08,28,11,00,20.70
2006,08,28,11,01,20.70
2006,08,28,11,02,20.70
2006,08,28,11,03,20.70
2006,08,28,11,04,20.60
2006,08,28,11,05,20.60
2006,08,28,11,06,20.60
2006,08,28,11,07,20.60
2006,08,28,11,08,20.60
2006,08,28,11,09,20.60
2006,08,28,11,10,20.70
2006,08,28,11,11,20.70
2006,08,28,11,12,20.70
2006,08,28,11,13,20.50
2006,08,28,11,14,20.30
2006,08,28,11,15,20.30
2006,08,28,11,16,20.30
2006,08,28,11,17,20.30
2006,08,28,11,18,20.30
2006,08,28,11,19,20.20
2006,08,28,11,20,20.20
2006,08,28,11,21,20.20
2006,08,28,11,22,20.20
2006,08,28,11,23,20.20
2006,08,28,11,24,20.30
2006,08,28,11,25,20.30
2006,08,28,11,26,20.30
2006,08,28,11,27,20.30
2006,08,28,11,28,20.30
2006,08,28,11,29,20.40
2006,08,28,11,30,20.50
2006,08,28,11,31,20.60
2006,08,28,11,32,20.70
2006,08,28,11,33,20.80
2006,08,28,11,34,20.90
2006,08,28,11,35,20.90
2006,08,28,11,36,21.00
2006,08,28,11,37,21.10
2006,08,28,11,38,21.20
2006,08,28,11,39,21.20
2006,08,28,11,40,21.20
2006,08,28,11,41,21.20
2006,08,28,11,42,21.20
2006,08,28,11,43,21.20
2006,08,28,11,44,21.30
2006,08,28,11,45,21.20
2006,08,28,11,46,21.10
2006,08,28,11,47,21.10
2006,08,28,11,48,21.10
2006,08,28,11,49,21.00
2006,08,28,11,50,21.10
2006,08,28,11,51,21.00
2006,08,28,11,52,21.00
2006,08,28,11,53,21.00
2006,08,28,11,54,21.10
2006,08,28,11,55,21.00
2006,08,28,11,56,20.90
2006,08,28,11,57,20.90
2006,08,28,11,58,20.90
2006,08,28,11,59,20.90
2006,08,28,12,00,21.00
2006,08,28,12,01,20.90
2006,08,28,12,02,21.00
2006,08,28,12,03,21.00
2006,08,28,12,04,21.00
2006,08,28,12,05,20.90
2006,08,28,12,06,21.00
2006,08,28,12,07,21.00
2006,08,28,12,08,21.20
2006,08,28,12,09,21.30
2006,08,28,12,10,21.40
2006,08,28,12,11,21.60
2006,08,28,12,12,21.70
2006,08,28,12,13,21.80
2006,08,28,12,14,22.00
2006,08,28,12,15,22.10
2006,08,28,12,16,22.10
2006,08,28,12,17,22.20
2006,08,28,12,18,22.20
2006,08,28,12,19,22.20
2006,08,28,12,20,22.10
2006,08,28,12,21,22.10
2006,08,28,12,22,22.20
2006,08,28,12,23,22.20
2006,08,28,12,24,22.30
2006,08,28,12,25,22.40
2006,08,28,12,26,22.40
2006,08,28,12,27,22.40
2006,08,28,12,28,22.40
2006,08,28,12,29,22.40
2006,08,28,12,30,22.50
2006,08,28,12,31,22.50
2006,08,28,12,32,22.50
2006,08,28,12,33,22.50
2006,08,28,12,34,22.60
2006,08,28,12,35,22.60
2006,08,28,12,36,22.70
2006,08,28,12,37,22.70
2006,08,28,12,38,22.70
2006,08,28,12,39,22.60
2006,08,28,12,40,22.60
2006,08,28,12,41,22.60
2006,08,28,12,42,22.70
2006,08,28,12,43,22.70
2006,08,28,12,44,22.80
2006,08,28,12,45,22.80
2006,08,28,12,46,22.90
2006,08,28,12,47,22.90
2006,08,28,12,48,22.80
2006,08,28,12,49,22.80
2006,08,28,12,50,22.80
2006,08,28,12,51,22.70
2006,08,28,12,52,22.60
2006,08,28,12,53,22.60
2006,08,28,12,54,22.60
2006,08,28,12,55,22.60
2006,08,28,12,56,22.50
2006,08,28,12,57,22.50
2006,08,28,12,58,22.50
2006,08,28,12,59,22.30
2006,08,28,13,00,22.30
2006,08,28,13,01,22.30
2006,08,28,13,02,22.30
2006,08,28,13,03,22.20
2006,08,28,13,04,22.10
2006,08,28,13,05,22.10
2006,08,28,13,06,21.90
2006,08,28,13,07,21.80
2006,08,28,13,08,21.70
2006,08,28,13,09,21.80
2006,08,28,13,10,21.80
2006,08,28,13,11,21.80
2006,08,28,13,12,21.90
2006,08,28,13,13,22.00
2006,08,28,13,14,22.20
2006,08,28,13,15,22.50
2006,08,28,13,16,22.70
2006,08,28,13,17,22.80
2006,08,28,13,18,23.00
2006,08,28,13,19,23.20
2006,08,28,13,20,23.30
2006,08,28,13,21,23.50
2006,08,28,13,22,23.60
2006,08,28,13,23,23.70
2006,08,28,13,24,23.70
2006,08,28,13,25,23.70
2006,08,28,13,26,23.70
2006,08,28,13,27,23.80
2006,08,28,13,28,23.80
2006,08,28,13,29,23.70
2006,08,28,13,30,23.70
2006,08,28,13,31,23.70
2006,08,28,13,32,23.70
2006,08,28,13,33,23.70
2006,08,28,13,34,23.70
2006,08,28,13,35,23.70
2006,08,28,13,36,23.70
2006,08,28,13,37,23.70
2006,08,28,13,38,23.70
2006,08,28,13,39,23.60
2006,08,28,13,40,23.60
2006,08,28,13,41,23.60
2006,08,28,13,42,23.70
2006,08,28,13,43,23.70
2006,08,28,13,44,23.70
2006,08,28,13,45,23.70
2006,08,28,13,46,23.70
2006,08,28,13,47,23.70
2006,08,28,13,48,23.70
2006,08,28,13,49,23.80
2006,08,28,13,50,23.90
2006,08,28,13,51,24.00
2006,08,28,13,52,24.10
2006,08,28,13,53,24.10
2006,08,28,13,54,24.10
2006,08,28,13,55,24.10
2006,08,28,13,56,24.10
2006,08,28,13,57,24.00
2006,08,28,13,58,23.90
2006,08,28,13,59,23.80
2006,08,28,14,00,23.70
2006,08,28,14,01,23.80
2006,08,28,14,02,23.80
2006,08,28,14,03,23.90
2006,08,28,14,04,23.90
2006,08,28,14,05,23.70
2006,08,28,14,06,23.70
2006,08,28,14,07,23.50
2006,08,28,14,08,23.50
2006,08,28,14,09,23.60
2006,08,28,14,10,23.70
2006,08,28,14,11,23.60
2006,08,28,14,12,23.60
2006,08,28,14,13,23.40
2006,08,28,14,14,23.40
2006,08,28,14,15,23.40
2006,08,28,14,16,23.40
2006,08,28,14,17,23.40
2006,08,28,14,18,23.30
2006,08,28,14,19,23.30
2006,08,28,14,20,23.40
2006,08,28,14,21,23.40
2006,08,28,14,22,23.40
2006,08,28,14,23,23.40
2006,08,28,14,24,23.50
2006,08,28,14,25,23.60
2006,08,28,14,26,23.60
2006,08,28,14,27,23.70
2006,08,28,14,28,23.70
2006,08,28,14,29,23.70
2006,08,28,14,30,23.70
2006,08,28,14,31,23.70
2006,08,28,14,32,23.70
2006,08,28,14,33,23.70
2006,08,28,14,34,23.70
2006,08,28,14,35,23.70
2006,08,28,14,36,23.80
2006,08,28,14,37,23.80
2006,08,28,14,38,23.80
2006,08,28,14,39,23.70
2006,08,28,14,40,23.70
2006,08,28,14,41,23.70
2006,08,28,14,42,23.60
2006,08,28,14,43,23.60
2006,08,28,14,44,23.70
2006,08,28,14,45,23.70
2006,08,28,14,46,23.70
2006,08,28,14,47,23.60
2006,08,28,14,48,23.60
2006,08,28,14,49,23.70
2006,08,28,14,50,23.70
2006,08,28,14,51,23.70
2006,08,28,14,52,23.70
2006,08,28,14,53,23.80
2006,08,28,14,54,24.00
2006,08,28,14,55,24.10
2006,08,28,14,56,24.20
2006,08,28,14,57,24.20
2006,08,28,14,58,24.30
2006,08,28,14,59,24.40
2006,08,28,15,00,24.40
2006,08,28,15,01,24.40
2006,08,28,15,02,24.40
2006,08,28,15,03,24.40
2006,08,28,15,04,24.50
2006,08,28,15,05,24.70
2006,08,28,15,06,24.90
2006,08,28,15,07,25.10
2006,08,28,15,08,25.30
2006,08,28,15,09,25.40
2006,08,28,15,10,25.50
2006,08,28,15,11,25.50
2006,08,28,15,12,25.70
2006,08,28,15,13,25.80
2006,08,28,15,14,25.80
2006,08,28,15,15,25.90
2006,08,28,15,16,25.90
2006,08,28,15,17,25.80
2006,08,28,15,18,25.80
2006,08,28,15,19,25.90
2006,08,28,15,20,26.00
2006,08,28,15,21,26.00
2006,08,28,15,22,26.00
2006,08,28,15,23,26.10
2006,08,28,15,24,26.00
2006,08,28,15,25,26.00
2006,08,28,15,26,25.90
2006,08,28,15,27,25.90
2006,08,28,15,28,26.00
2006,08,28,15,29,26.00
2006,08,28,15,30,26.00
2006,08,28,15,31,26.00
2006,08,28,15,32,26.10
2006,08,28,15,33,26.10
2006,08,28,15,34,26.10
2006,08,28,15,35,26.20
2006,08,28,15,36,26.20
2006,08,28,15,37,26.30
2006,08,28,15,38,26.30
2006,08,28,15,39,26.40
2006,08,28,15,40,26.40
2006,08,28,15,41,26.40
2006,08,28,15,42,26.40
2006,08,28,15,43,26.40
2006,08,28,15,44,26.30
2006,08,28,15,45,26.20
2006,08,28,15,46,26.20
2006,08,28,15,47,26.20
2006,08,28,15,48,26.20
2006,08,28,15,49,26.10
2006,08,28,15,50,26.20
2006,08,28,15,51,26.10
2006,08,28,15,52,26.00
2006,08,28,15,53,26.00
2006,08,28,15,54,25.90
2006,08,28,15,55,25.90
2006,08,28,15,56,26.00
2006,08,28,15,57,26.10
2006,08,28,15,58,26.10
2006,08,28,15,59,26.10
2006,08,28,16,00,26.10
2006,08,28,16,01,26.10
2006,08,28,16,02,26.00
2006,08,28,16,03,26.10
2006,08,28,16,04,26.10
2006,08,28,16,05,26.20
2006,08,28,16,06,26.30
2006,08,28,16,07,26.40
2006,08,28,16,08,26.40
2006,08,28,16,09,26.40
2006,08,28,16,10,26.40
2006,08,28,16,11,26.40
2006,08,28,16,12,26.30
2006,08,28,16,13,26.20
2006,08,28,16,14,26.10
2006,08,28,16,15,25.80
2006,08,28,16,16,25.70
2006,08,28,16,17,25.60
2006,08,28,16,18,25.50
2006,08,28,16,19,25.50
2006,08,28,16,20,25.50
2006,08,28,16,21,25.50
2006,08,28,16,22,25.50
2006,08,28,16,23,25.50
2006,08,28,16,24,25.50
2006,08,28,16,25,25.50
2006,08,28,16,26,25.60
2006,08,28,16,27,25.60
2006,08,28,16,28,25.70
2006,08,28,16,29,25.60
2006,08,28,16,30,25.60
2006,08,28,16,31,25.50
2006,08,28,16,32,25.40
2006,08,28,16,33,25.40
2006,08,28,16,34,25.30
2006,08,28,16,35,25.20
2006,08,28,16,36,25.20
2006,08,28,16,37,25.30
2006,08,28,16,38,25.40
2006,08,28,16,39,25.40
2006,08,28,16,40,25.40
2006,08,28,16,41,25.40
2006,08,28,16,42,25.20
2006,08,28,16,43,25.20
2006,08,28,16,44,25.10
2006,08,28,16,45,24.90
2006,08,28,16,46,24.90
2006,08,28,16,47,24.90
2006,08,28,16,48,24.90
2006,08,28,16,49,24.90
2006,08,28,16,50,24.80
2006,08,28,16,51,24.70
2006,08,28,16,52,24.60
2006,08,28,16,53,24.60
2006,08,28,16,54,24.50
2006,08,28,16,55,24.40
2006,08,28,16,56,24.20
2006,08,28,16,57,24.20
2006,08,28,16,58,24.10
2006,08,28,16,59,24.10
2006,08,28,17,00,24.10
2006,08,28,17,01,24.10
2006,08,28,17,02,24.10
2006,08,28,17,03,24.10
2006,08,28,17,04,24.00
2006,08,28,17,05,23.90
2006,08,28,17,06,23.90
2006,08,28,17,07,23.90
2006,08,28,17,08,23.90
2006,08,28,17,09,24.00
2006,08,28,17,10,24.10
2006,08,28,17,11,24.10
2006,08,28,17,12,24.10
2006,08,28,17,13,24.20
2006,08,28,17,14,24.20
2006,08,28,17,15,24.20
2006,08,28,17,16,24.20
2006,08,28,17,17,24.20
2006,08,28,17,18,24.20
2006,08,28,17,19,24.20